Location: Complexul Astronomic Baia Mare
(47.6577°N, 23.5639°E)
Time: 17:47:01
(UTC+03:00)

ISS - Pass Details

Date: 23 May 2017
Orbit: 401 x 407 km, 51.6° (Epoch: 26 September)

Event Time Altitude Azimuth Distance (km) Brightness Sun altitude
Exits shadow 00:49:36 52° 295° (WNW) 527 -3.2 -21.4°
Maximum altitude 00:50:09 62° 342° (NNW) 474 -3.3 -21.4°
Drops below altitude 10° 00:53:28 10° 64° (ENE) 1,490 -0.8 -21.5°
Enters shadow 02:12:00 -25° 272° (W) 6,195 2.2 -20.9°
